TimeCDT,TemperatureF,Dew PointF,Humidity,Sea Level PressureIn,VisibilityMPH,Wind Direction,Wind SpeedMPH,Gust SpeedMPH,PrecipitationIn,Events,Conditions,WindDirDegrees,DateUTC
12:56 AM,62.1,55.0,78,29.95,10.0,SW,5.8,-,N/A,,Clear,230,2014-05-06 05:56:00
1:56 AM,61.0,55.9,83,29.94,10.0,SW,4.6,-,N/A,,Clear,230,2014-05-06 06:56:00
2:56 AM,57.9,54.0,87,29.93,10.0,SW,3.5,-,N/A,,Clear,230,2014-05-06 07:56:00
6:56 AM,57.9,55.9,93,29.98,7.0,Calm,Calm,-,N/A,Fog,Patches of Fog,0,2014-05-06 11:56:00
7:56 AM,66.2,60.8,83,30.00,9.0,Calm,Calm,-,N/A,,Partly Cloudy,0,2014-05-06 12:56:00
8:56 AM,73.4,62.6,69,30.01,10.0,SW,5.8,-,N/A,,Partly Cloudy,230,2014-05-06 13:56:00
9:56 AM,75.9,61.0,60,30.01,10.0,Variable,3.5,-,N/A,,Partly Cloudy,0,2014-05-06 14:56:00
10:56 AM,79.0,55.9,45,30.01,10.0,South,6.9,-,N/A,,Partly Cloudy,190,2014-05-06 15:56:00
11:56 AM,81.0,54.0,39,30.00,10.0,Calm,Calm,-,N/A,,Partly Cloudy,0,2014-05-06 16:56:00
12:56 PM,82.0,54.0,38,29.98,10.0,SW,8.1,-,N/A,,Partly Cloudy,230,2014-05-06 17:56:00
1:56 PM,84.0,51.1,32,29.96,10.0,Variable,6.9,-,N/A,,Partly Cloudy,0,2014-05-06 18:56:00
2:56 PM,82.9,53.1,36,29.95,10.0,SSE,10.4,-,N/A,,Partly Cloudy,160,2014-05-06 19:56:00
3:56 PM,82.0,54.0,38,29.94,10.0,SSW,11.5,-,N/A,,Partly Cloudy,200,2014-05-06 20:56:00
4:56 PM,80.1,50.0,35,29.94,10.0,SSW,11.5,-,N/A,,Partly Cloudy,200,2014-05-06 21:56:00
5:56 PM,78.1,54.0,43,29.94,10.0,SSW,11.5,-,N/A,,Partly Cloudy,200,2014-05-06 22:56:00
6:56 PM,73.9,53.1,48,29.94,10.0,South,10.4,-,N/A,,Clear,180,2014-05-06 23:56:00
7:56 PM,70.0,60.1,71,29.95,10.0,South,8.1,-,N/A,,Clear,180,2014-05-07 00:56:00
8:56 PM,68.0,59.0,73,29.96,10.0,SSW,6.9,-,N/A,,Clear,200,2014-05-07 01:56:00
9:56 PM,64.9,59.0,81,29.97,10.0,SW,5.8,-,N/A,,Clear,220,2014-05-07 02:56:00
10:45 PM,64.0,59.0,84,30.02,10.0,SW,4.6,-,N/A,,Clear,220,2014-05-07 03:45:00
10:56 PM,64.0,59.0,84,29.98,10.0,SW,4.6,-,N/A,,Clear,220,2014-05-07 03:56:00
11:56 PM,63.0,59.0,87,29.98,10.0,Calm,Calm,-,N/A,,Clear,0,2014-05-07 04:56:00